sat.trackr.live / text

‹ back to catalog

STARLINK-2315

NORAD 47789 · 2021-018C

PAYLOAD ACTIVE UNKNOWN

§ Identity

Operator
Country
US
Launch date
2021-03-11
Launch site
AFETR
Launch vehicle
Mass (kg)
RCS (m²)

Purposes: comms

External: N2YO · Heavens-Above · Gunter

§ Orbital elements

Epoch: 2026-05-24T23:42:47.335968Z

Period
94.01 min
Inclination
53.1616°
Eccentricity
0.0000418
Mean motion
15.31699939 rev/d
Perigee alt
470.5 km
Apogee alt
471.0 km
Semi-major
6,848.9 km
B*
1.1587e-4
RAAN
244.4432°
Arg perigee
237.8426°
Mean anomaly
122.2535°
Rev number
28,845

§ Raw data

STARLINK-23151 47789U 21018C   26144.98804787  .00003233  00000+0  11587-3 0  99902 47789  53.1616 244.4432 0000418 237.8426 122.2535 15.31699939288459

JSON: /api/v1/satellites/47789 · /tle

For live sub-satellite position, see the globe view (requires WebGL).

§ Visibility from observer

Set your observer location to see the next 7 days of passes ≥ 10°. The values pass through the URL so the page stays shareable.

No JS? Fill the form by hand. The geolocation button needs JavaScript.